Weather History for Huntingburg, IN

Change the Weather History Date:

Tuesday, March 19, 2013

  Actual Average Record
Temperature  
Mean Temperature 37 °F -  
Max Temperature 46 °F 53 °F 82 °F (2012)
Min Temperature 28 °F 34 °F 28 °F (2013)
Degree Days  
Heating Degree Days 28    
Moisture  
Dew Point 23 °F    
Average Humidity 58    
Maximum Humidity 87    
Minimum Humidity 34    
Precipitation  
Precipitation 0.00 in - - ()
Sea Level Pressure  
Sea Level Pressure 30.12 in    
Wind  
Wind Speed 10 mph (West)    
Max Wind Speed 21 mph    
Max Gust Speed 28 mph    
Visibility 10 miles    
Events      
Averages and records for this station are not official NWS values.
T = Trace of Precipitation, MM = Missing Value Source: NWS Daily Summary

Daily Weather History Graph

Daily Weather History Graph

Search for Another Location

Airport:

Trip Planner

Search our weather history database for the weather conditions in past years. The results will help you decide how hot, cold, wet, or windy it might be!

Date:

Astronomy

Mar. 19, 2013 Rise Set
Actual Time 7:52 AM EDT 7:59 PM EDT
Civil Twilight 7:26 AM EDT 8:25 PM EDT
Nautical Twilight 6:55 AM EDT 8:56 PM EDT
Astronomical Twilight 6:24 AM EDT 9:27 PM EDT
Moon 12:47 PM EDT (3/19) 2:40 AM EDT (3/19)
Length of Visible Light 12h 59m
Length of Day
12h 06m
Waxing Crescent, 49% of the Moon is Illuminated
Mar 19
Waxing Crescent
Mar 19
First Quarter
Mar 27
Full
Apr 3
Last Quarter
Apr 10
New

Hourly Weather History & Observations

Time (EDT) Temp. Windchill Dew Point Humidity Pressure Visibility Wind Dir Wind Speed Gust Speed Precip Events Conditions
12:15 AM 37.4 °F 32.1 °F 33.8 °F 87% 29.92 in 10.0 mi SSW 6.9 mph - N/A   Clear
12:35 AM 35.6 °F 29.2 °F 32.0 °F 87% 29.92 in 10.0 mi SW 8.1 mph - N/A   Clear
12:55 AM 35.6 °F 28.0 °F 32.0 °F 87% 29.93 in 10.0 mi SW 10.4 mph - N/A   Clear
1:15 AM 35.6 °F 28.0 °F 32.0 °F 87% 29.94 in 10.0 mi SSW 10.4 mph - N/A   Clear
1:55 AM 37.4 °F 30.8 °F 33.8 °F 87% 29.97 in 10.0 mi West 9.2 mph - N/A   Clear
2:15 AM 37.4 °F 30.3 °F 32.0 °F 81% 29.98 in 10.0 mi West 10.4 mph - N/A   Clear
2:35 AM 37.4 °F 31.4 °F 30.2 °F 75% 29.99 in 10.0 mi West 8.1 mph - N/A   Clear
2:55 AM 35.6 °F 28.0 °F 30.2 °F 81% 30.00 in 10.0 mi West 10.4 mph - N/A   Clear
3:15 AM 35.6 °F 27.5 °F 28.4 °F 75% 30.02 in 10.0 mi West 11.5 mph - N/A   Clear
3:35 AM 35.6 °F 28.0 °F 28.4 °F 75% 30.02 in 10.0 mi NW 10.4 mph - N/A   Partly Cloudy
3:55 AM 35.6 °F 26.2 °F 28.4 °F 75% 30.02 in 10.0 mi WNW 15.0 mph 20.7 mph N/A   Partly Cloudy
4:15 AM 33.8 °F 24.8 °F 24.8 °F 70% 30.03 in 10.0 mi WNW 12.7 mph 17.3 mph N/A   Clear
4:35 AM 33.8 °F 27.7 °F 24.8 °F 70% 30.02 in 10.0 mi WNW 6.9 mph - N/A   Clear
4:55 AM 32.0 °F 23.6 °F 24.8 °F 75% 30.03 in 10.0 mi West 10.4 mph - N/A   Clear
5:15 AM 32.0 °F 23.6 °F 24.8 °F 75% 30.03 in 10.0 mi West 10.4 mph - N/A   Clear
5:35 AM 30.2 °F 21.9 °F 23.0 °F 75% 30.05 in 10.0 mi West 9.2 mph - N/A   Clear
6:15 AM 30.2 °F 23.4 °F 21.2 °F 69% 30.05 in 10.0 mi WNW 6.9 mph - N/A   Clear
6:35 AM 28.4 °F 22.2 °F 21.2 °F 74% 30.04 in 10.0 mi WNW 5.8 mph - N/A   Clear
6:55 AM 28.4 °F 21.2 °F 21.2 °F 74% 30.04 in 10.0 mi West 6.9 mph - N/A   Clear
7:15 AM 28.4 °F 21.2 °F 21.2 °F 74% 30.06 in 10.0 mi WNW 6.9 mph - N/A   Clear
7:35 AM 28.4 °F 21.2 °F 21.2 °F 74% 30.07 in 10.0 mi WNW 6.9 mph - N/A   Clear
7:55 AM 28.4 °F 22.2 °F 19.4 °F 69% 30.07 in 10.0 mi West 5.8 mph - N/A   Clear
8:15 AM 28.4 °F 21.2 °F 19.4 °F 69% 30.08 in 10.0 mi SW 6.9 mph - N/A   Clear
8:35 AM 28.4 °F 19.7 °F 21.2 °F 74% 30.09 in 10.0 mi WSW 9.2 mph - N/A   Clear
9:15 AM 30.2 °F 22.6 °F 19.4 °F 64% 30.10 in 10.0 mi WSW 8.1 mph - N/A   Clear
9:35 AM 32.0 °F 23.0 °F 19.4 °F 60% 30.11 in 10.0 mi WSW 11.5 mph - N/A   Clear
9:55 AM 33.8 °F 25.3 °F 19.4 °F 56% 30.12 in 10.0 mi WSW 11.5 mph - N/A   Clear
10:15 AM 33.8 °F 23.2 °F 21.2 °F 60% 30.13 in 10.0 mi West 17.3 mph - N/A   Clear
10:35 AM 35.6 °F 26.2 °F 21.2 °F 56% 30.12 in 10.0 mi West 15.0 mph 20.7 mph N/A   Clear
10:55 AM 35.6 °F 27.1 °F 23.0 °F 60% 30.12 in 10.0 mi West 12.7 mph 18.4 mph N/A   Clear
11:35 AM 37.4 °F 28.2 °F 21.2 °F 52% 30.15 in 10.0 mi West 16.1 mph 21.9 mph N/A   Clear
11:55 AM 37.4 °F 28.2 °F 21.2 °F 52% 30.16 in 10.0 mi West 16.1 mph - N/A   Clear
12:15 PM 39.2 °F 29.6 °F 21.2 °F 49% 30.17 in 10.0 mi West 19.6 mph 24.2 mph N/A   Clear
12:35 PM 39.2 °F 30.2 °F 23.0 °F 52% 30.17 in 10.0 mi West 17.3 mph 24.2 mph N/A   Clear
12:55 PM 39.2 °F 29.3 °F 24.8 °F 56% 30.18 in 10.0 mi West 20.7 mph 24.2 mph N/A   Clear
1:15 PM 41.0 °F 31.9 °F 24.8 °F 53% 30.18 in 10.0 mi West 19.6 mph 25.3 mph N/A   Clear
1:35 PM 41.0 °F 32.5 °F 23.0 °F 49% 30.19 in 10.0 mi West 17.3 mph 21.9 mph N/A   Clear
1:55 PM 42.8 °F 35.4 °F 23.0 °F 46% 30.19 in 10.0 mi West 15.0 mph 26.5 mph N/A   Clear
2:15 PM 42.8 °F 35.1 °F 23.0 °F 46% 30.18 in 10.0 mi West 16.1 mph 21.9 mph N/A   Clear
2:35 PM 42.8 °F 36.2 °F 23.0 °F 46% 30.18 in 10.0 mi West 12.7 mph 18.4 mph N/A   Clear
2:55 PM 44.6 °F 38.1 °F 24.8 °F 46% 30.18 in 10.0 mi WNW 13.8 mph 19.6 mph N/A   Clear
3:15 PM 44.6 °F 37.2 °F 24.8 °F 46% 30.18 in 10.0 mi WNW 17.3 mph 25.3 mph N/A   Clear
3:35 PM 44.6 °F 37.4 °F 23.0 °F 43% 30.17 in 10.0 mi West 16.1 mph 21.9 mph N/A   Clear
3:55 PM 44.6 °F 39.2 °F 21.2 °F 39% 30.17 in 10.0 mi NW 10.4 mph 24.2 mph N/A   Clear
4:15 PM 46.4 °F 40.7 °F 24.8 °F 43% 30.17 in 10.0 mi West 12.7 mph - N/A   Clear
4:35 PM 46.4 °F 39.5 °F 23.0 °F 40% 30.18 in 10.0 mi WNW 17.3 mph 27.6 mph N/A   Clear
4:55 PM 46.4 °F 41.9 °F 21.2 °F 37% 30.17 in 10.0 mi NW 9.2 mph - N/A   Clear
5:15 PM 46.4 °F 41.1 °F 21.2 °F 37% 30.18 in 10.0 mi WNW 11.5 mph 23.0 mph N/A   Clear
5:35 PM 46.4 °F 40.1 °F 21.2 °F 37% 30.18 in 10.0 mi WNW 15.0 mph - N/A   Clear
5:55 PM 46.4 °F 41.5 °F 19.4 °F 34% 30.17 in 10.0 mi NW 10.4 mph - N/A   Clear
6:15 PM 44.6 °F 38.8 °F 19.4 °F 37% 30.18 in 10.0 mi NW 11.5 mph - N/A   Clear
6:35 PM 44.6 °F 41.4 °F 19.4 °F 37% 30.18 in 10.0 mi WNW 5.8 mph - N/A   Clear
6:55 PM 44.6 °F 38.4 °F 21.2 °F 39% 30.18 in 10.0 mi NW 12.7 mph - N/A   Clear
7:15 PM 42.8 °F 38.0 °F 17.6 °F 36% 30.18 in 10.0 mi NW 8.1 mph - N/A   Clear
7:35 PM 42.8 °F 39.3 °F 19.4 °F 39% 30.19 in 10.0 mi West 5.8 mph - N/A   Clear
7:55 PM 42.8 °F 37.5 °F 19.4 °F 39% 30.19 in 10.0 mi WNW 9.2 mph - N/A   Clear
8:15 PM 39.2 °F 35.9 °F 19.4 °F 45% 30.19 in 10.0 mi WNW 4.6 mph - N/A   Clear
8:35 PM 39.2 °F 35.0 °F 21.2 °F 49% 30.19 in 10.0 mi West 5.8 mph - N/A   Clear
8:55 PM 39.2 °F 35.9 °F 17.6 °F 42% 30.19 in 10.0 mi West 4.6 mph - N/A   Clear
9:15 PM 39.2 °F 34.2 °F 19.4 °F 45% 30.19 in 10.0 mi WSW 6.9 mph - N/A   Clear
9:35 PM 37.4 °F 31.4 °F 21.2 °F 52% 30.19 in 10.0 mi West 8.1 mph - N/A   Clear
9:55 PM 37.4 °F 32.8 °F 19.4 °F 48% 30.19 in 10.0 mi WSW 5.8 mph - N/A   Clear
10:15 PM 39.2 °F 35.0 °F 19.4 °F 45% 30.19 in 10.0 mi WSW 5.8 mph - N/A   Clear
10:35 PM 37.4 °F 32.8 °F 19.4 °F 48% 30.19 in 10.0 mi WSW 5.8 mph - N/A   Clear
10:55 PM 37.4 °F 34.9 °F 19.4 °F 48% 30.19 in 10.0 mi WSW 3.5 mph - N/A   Clear
11:15 PM 35.6 °F 32.8 °F 19.4 °F 52% 30.19 in 10.0 mi WSW 3.5 mph - N/A   Clear
11:35 PM 35.6 °F - 21.2 °F 56% 30.18 in 10.0 mi Calm Calm - N/A   Clear
11:55 PM 35.6 °F 32.8 °F 21.2 °F 56% 30.18 in 10.0 mi WSW 3.5 mph - N/A   Clear